[[{"header":{"parameterUnit":"m.s-1","parameterCategory":2,"la1":30.2991,"la2":30.254,"lo1":-89.0895,"lo2":-89.0444,"dy":0.0017,"dx":0.0017,"nx":28,"ny":28,"refTime":"2025-02-07T09:00:00:Z","depth":"0","parameterNumber":2,"parameterNumberName":"U-component_of_CURRENTS"},"data":[0,0,0,0,0,0,0,0,0,0,0,0,0,0,0,0,0,0,0,0,0,0,0,0,0,0,0,0,0,0,0,0,0,0,0,0,0,0,0,0,0,0,0,0,0,0,0,0,0,0,0,0,0,0,0,0,0,0,0.2436,0.2437,0,0.2488,0.2489,0.2489,0.249,0.2489,0.2489,0.2488,0.2506,0.2507,0.2508,0,0,0,0,0,0,0,0,0,0,0,0,0,0.2349,0.235,0.2436,0.2437,0.2438,0.2488,0.2489,0.2489,0.249,0.2489,0.2489,0.2488,0.2506,0.2507,0.2508,0,0,0,0,0,0,0,0,0,0,0,0,0,0.239,0.2351,0.2436,0.2446,0.2447,0.2488,0.2489,0.2489,0.249,0.2489,0.2488,0.2488,0.2505,0.2507,0.2508,0.253,0,0,0.2512,0.2513,0,0,0,0,0,0,0,0,0.2388,0.2393,0.2443,0.2445,0.2447,0.2484,0.2465,0.2502,0.249,0.2471,0.2488,0.2487,0.2497,0.2499,0.2508,0.2531,0.2532,0.2512,0.2513,0.2513,0.2514,0,0,0,0,0,0,0,0.2385,0.2391,0.2454,0.2444,0.2446,0.2452,0.2457,0.2472,0.2485,0.2473,0.2474,0.2483,0.2497,0.2507,0.2508,0.2532,0.2512,0.2513,0.2514,0.2515,0.2602,0.2603,0,0,0,0,0,0,0.2384,0.2389,0.2453,0.2456,0.2418,0.2454,0.2459,0.2471,0.2486,0.2488,0.2484,0.2483,0.2505,0.2507,0.2509,0.2562,0.2513,0.2515,0.2515,0.26,0.2602,0.2604,0,0,0,0,0,0,0.2382,0.2389,0.2451,0.2425,0.2433,0.2456,0.2469,0.2472,0.2484,0.2495,0.2496,0.2493,0.2504,0.2507,0.2534,0.2562,0.2515,0.2517,0.2599,0.2601,0.2603,0.2652,0,0,0,0,0,0,0.2379,0.2388,0.2396,0.2425,0.2435,0.2484,0.247,0.2474,0.2492,0.2492,0.2504,0.2504,0.2504,0.2532,0.2535,0.2563,0.2518,0.2597,0.26,0.2602,0.2649,0.2656,0.2662,0,0,0,0,0,0.2376,0.2391,0.2396,0.2404,0.2446,0.2486,0.2492,0.2503,0.2493,0.2509,0.2516,0.2504,0.2552,0.2534,0.2538,0.2566,0.2595,0.2599,0.2602,0.2646,0.2655,0.2662,0,0,0,0,0,0,0.2356,0.2394,0.24,0.2426,0.2458,0.2487,0.2504,0.2508,0.2527,0.2524,0.2523,0.2526,0.2562,0.2558,0.2539,0.2601,0.2572,0.2577,0.2604,0.2613,0.2619,0.2628,0.2519,0,0,0,0,0,0.2358,0.238,0.2416,0.2438,0.2456,0.2479,0.2496,0.2507,0.2527,0.2534,0.2543,0.2556,0.258,0.259,0.2609,0.264,0.2681,0.2662,0.2668,0.2674,0.2684,0.2768,0.2783,0.2615,0.2615,0.2615,0,0,0.2354,0.2381,0.2391,0.2436,0.246,0.2493,0.2487,0.252,0.2548,0.2534,0.257,0.2581,0.2595,0.2635,0.265,0.2633,0.2751,0.2678,0.2683,0.269,0.2773,0.2789,0.2804,0.2617,0.2617,0.2617,0,0,0.2364,0.2386,0.2409,0.2441,0.2485,0.2506,0.2516,0.2552,0.257,0.2607,0.2609,0.2638,0.2665,0.2688,0.27,0.2756,0.2786,0.276,0.2798,0.2879,0.2894,0.2907,0.3014,0.3036,0.276,0.276,0.276,0,0.2356,0.2393,0.2422,0.2458,0.2482,0.2512,0.2541,0.2574,0.2613,0.2632,0.2624,0.2688,0.2695,0.2752,0.2773,0.2772,0.2833,0.2764,0.2889,0.2903,0.2916,0.3021,0.3045,0.2763,0.2762,0.2762,0.2762,0,0.2386,0.2418,0.2438,0.2491,0.2521,0.2555,0.2602,0.2633,0.2651,0.2681,0.274,0.2763,0.2796,0.281,0.2808,0.29,0.2922,0.2892,0.2869,0.2936,0.3043,0.3067,0.2767,0.2766,0.2765,0.2764,0,0,0.2356,0.244,0.2446,0.2476,0.2539,0.2568,0.262,0.2676,0.2729,0.276,0.2832,0.2862,0.2873,0.2889,0.2899,0.297,0.3119,0.2973,0.2976,0.308,0.3336,0.3306,0.333,0.3115,0.3119,0.3122,0.3386,0,0.2368,0.2431,0.2469,0.2526,0.2561,0.2605,0.266,0.2714,0.2772,0.2858,0.2889,0.297,0.2906,0.2952,0.2999,0.3107,0.318,0.3052,0.3254,0.326,0.3226,0.3355,0.3257,0.348,0.341,0.3414,0.3416,0,0.2377,0.2422,0.2473,0.2554,0.2573,0.2612,0.2701,0.2762,0.2879,0.2931,0.299,0.3044,0.315,0.3097,0.3273,0.32,0.3265,0.3335,0.3345,0.3314,0.3274,0.3395,0.3526,0.3422,0.3454,0.3451,0.3448,0,0.2336,0.242,0.2458,0.2485,0.2583,0.2611,0.2666,0.2772,0.2841,0.3003,0.3084,0.3186,0.3277,0.3366,0.3454,0.3402,0.3669,0.3611,0.3643,0.3643,0.3596,0.3584,0.3646,0.3735,0.3735,0.3734,0.3733,0,0.2331,0.2361,0.2446,0.2469,0.2521,0.2601,0.2682,0.2759,0.2904,0.3004,0.3117,0.3222,0.3352,0.3491,0.3545,0.368,0.3732,0.3695,0.3718,0.3612,0.3599,0.3531,0.3477,0.3744,0.3742,0.374,0.3738,0,0.2282,0.2338,0.2384,0.2477,0.2502,0.2541,0.2661,0.2741,0.289,0.3037,0.3103,0.3305,0.35,0.3616,0.382,0.381,0.3853,0.3959,0.3838,0.3839,0.3744,0.3697,0.3684,0.357,0.4081,0.4082,0.4083,0,0.2265,0.2285,0.2361,0.2386,0.2425,0.2497,0.2554,0.2701,0.2794,0.3064,0.3138,0.3391,0.3531,0.383,0.3915,0.4069,0.3895,0.4036,0.389,0.3767,0.3733,0.3554,0.3443,0.388,0.3879,0.3878,0.3877,0,0.2228,0.225,0.229,0.234,0.2388,0.2444,0.2542,0.2607,0.2806,0.2943,0.3153,0.3314,0.362,0.3758,0.3961,0.4014,0.3851,0.4023,0.3933,0.3623,0.3401,0.329,0.3694,0.387,0.3871,0.3872,0.3872,0.3872,0.2191,0.22,0.2255,0.2298,0.2346,0.2396,0.2413,0.254,0.2664,0.2864,0.3074,0.3278,0.3566,0.3851,0.3879,0.3877,0.3813,0.3793,0.3772,0.3622,0.3409,0.3805,0.3957,0.3958,0.3959,0.396,0.3961,0,0.2147,0.217,0.2215,0.2255,0.2276,0.2327,0.2407,0.2423,0.2513,0.2744,0.2919,0.3234,0.3431,0.361,0.3749,0.3654,0.3463,0.3557,0.3285,0.3205,0.3624,0.3507,0.352,0.3521,0.3521,0.3521,0.3521,0.3521,0.2127,0.2146,0.2176,0.2186,0.2206,0.22,0.2219,0.2251,0.2371,0.2545,0.2718,0.2936,0.3296,0.3581,0.3556,0.3464,0.3163,0.3068,0.3006,0.331,0.3327,0.3344,0.322,0.3173,0.3173,0.2448,0.2443,0.2439]},{"header":{"parameterUnit":"m.s-1","parameterCategory":2,"la1":30.2991,"la2":30.254,"lo1":-89.0895,"lo2":-89.0444,"dy":0.0017,"dx":0.0017,"nx":28,"ny":28,"refTime":"2025-02-07T09:00:00:Z","depth":"0","parameterNumber":3,"parameterNumberName":"V-component_of_CURRENTS"},"data":[0,0,0,0,0,0,0,0,0,0,0,0,0,0,0,0,0,0,0,0,0,0,0,0,0,0,0,0,0,0,0,0,0,0,0,0,0,0,0,0,0,0,0,0,0,0,0,0,0,0,0,0,0,0,0,0,0,0,0.0089,0.0088,0,0.001,0.0009,0.0008,-0.0048,-0.0049,-0.0049,-0.0049,-0.0167,-0.0169,-0.0172,0,0,0,0,0,0,0,0,0,0,0,0,0,0.0153,0.0153,0.0089,0.0088,0.0087,0.001,0.0009,0.0007,-0.0048,-0.0049,-0.0049,-0.0049,-0.0166,-0.0169,-0.0172,0,0,0,0,0,0,0,0,0,0,0,0,0,0.0104,0.0152,0.0089,0.0051,0.0047,0.001,0.0009,0.0007,-0.0048,-0.0049,-0.0049,-0.005,-0.0164,-0.0169,-0.0173,-0.0188,0,0,-0.0186,-0.0187,0,0,0,0,0,0,0,0,0.0107,0.0102,0.0057,0.0053,0.0049,-0.0009,-0.0012,-0.006,-0.0048,-0.0013,-0.0049,-0.005,-0.0116,-0.0125,-0.0139,-0.0194,-0.0199,-0.0186,-0.0188,-0.019,-0.0191,0,0,0,0,0,0,0,0.0111,0.0105,0.0056,0.0056,0.0051,0.0024,0.0017,-0.0021,-0.0062,-0.0016,-0.002,-0.0027,-0.0119,-0.0135,-0.0142,-0.0201,-0.0186,-0.019,-0.0192,-0.0194,-0.028,-0.028,0,0,0,0,0,0,0.0125,0.0108,0.0059,0.0054,0.0078,0.0024,0.0016,0.0009,-0.0061,-0.0072,-0.0027,-0.003,-0.0128,-0.0137,-0.0147,-0.0166,-0.019,-0.0194,-0.0197,-0.0281,-0.028,-0.028,0,0,0,0,0,0,0.0127,0.0121,0.0062,0.008,0.0071,0.0024,0.0017,0.0008,-0.0008,-0.0069,-0.008,-0.0034,-0.0128,-0.0141,-0.0175,-0.0171,-0.0196,-0.02,-0.0281,-0.028,-0.028,-0.0206,0,0,0,0,0,0,0.0129,0.0122,0.0124,0.0081,0.007,0.005,0.0017,0.0007,-0.0011,-0.0016,-0.0078,-0.009,-0.013,-0.0168,-0.0179,-0.0177,-0.0203,-0.0281,-0.0281,-0.028,-0.0209,-0.0203,-0.0198,0,0,0,0,0,0.0131,0.014,0.0125,0.0119,0.0074,0.005,0.0043,0.0006,-0.0011,-0.0011,-0.0054,-0.0088,-0.0174,-0.0171,-0.0184,-0.0183,-0.0281,-0.0281,-0.028,-0.0211,-0.0204,-0.0198,0,0,0,0,0,0,0.017,0.0134,0.0117,0.0114,0.0088,0.0041,0.0039,0.0012,-0.0022,-0.0026,-0.0085,-0.0099,-0.0128,-0.0165,-0.0161,-0.0207,-0.0233,-0.0235,-0.0176,-0.017,-0.0165,-0.0149,-0.0207,0,0,0,0,0,0.018,0.0177,0.0137,0.0136,0.0127,0.0084,0.007,0.0046,0.0009,-0.0006,-0.0049,-0.0096,-0.0136,-0.0159,-0.0198,-0.0222,-0.0235,-0.0231,-0.0225,-0.0221,-0.0216,-0.0227,-0.0222,-0.0278,-0.0278,-0.0278,0,0,0.0194,0.0175,0.0172,0.0144,0.0121,0.0115,0.0074,0.0061,0.0052,-0.0014,-0.0034,-0.0078,-0.0138,-0.0165,-0.0182,-0.0195,-0.0207,-0.022,-0.0216,-0.0214,-0.0226,-0.022,-0.0215,-0.0278,-0.0278,-0.0278,0,0,0.0224,0.0205,0.0213,0.0196,0.0169,0.0144,0.0144,0.0103,0.0081,0.0057,0.0006,-0.0033,-0.0089,-0.0134,-0.0164,-0.0155,-0.0178,-0.0166,-0.0129,-0.0139,-0.0134,-0.013,-0.0116,-0.0111,-0.0164,-0.0164,-0.0164,0,0.0243,0.0243,0.0212,0.0215,0.0208,0.0162,0.0169,0.0142,0.0095,0.0085,0.0063,-0.0017,-0.0076,-0.0112,-0.0117,-0.0144,-0.0139,-0.0146,-0.013,-0.0126,-0.0123,-0.0111,-0.0106,-0.016,-0.0161,-0.0161,-0.0162,0,0.0275,0.0275,0.0281,0.0269,0.0259,0.0259,0.0221,0.0209,0.0181,0.0153,0.012,0.0046,0.0,-0.0029,-0.0077,-0.0089,-0.0087,-0.0118,-0.014,-0.0113,-0.0101,-0.0098,-0.0155,-0.0156,-0.0158,-0.0158,0,0,0.0314,0.0305,0.0307,0.0314,0.0288,0.0286,0.0278,0.0259,0.0275,0.0215,0.0231,0.0126,0.0094,0.0056,-0.0005,-0.003,-0.0016,-0.0061,-0.0063,-0.0036,-0.0007,-0.0025,-0.0023,-0.0034,-0.0034,-0.0034,0.0002,0,0.0347,0.037,0.0353,0.0376,0.0385,0.0351,0.0358,0.0338,0.032,0.0329,0.0246,0.0242,0.0125,0.0125,0.007,0.0023,-0.0007,-0.0021,-0.0048,-0.0048,-0.0059,-0.0021,-0.005,-0.0023,0.0005,0.0005,0.0005,0,0.0382,0.0392,0.0423,0.0438,0.0442,0.0456,0.0472,0.0475,0.0466,0.046,0.0423,0.0379,0.0325,0.0239,0.0141,0.0147,0.0066,0.0016,0.0016,-0.0027,-0.0061,-0.0053,-0.0019,-0.0235,0.001,0.001,0.0009,0,0.0426,0.0442,0.0471,0.0474,0.0485,0.0504,0.0517,0.052,0.0568,0.0568,0.0631,0.0522,0.054,0.0402,0.0263,0.022,0.0185,0.0115,0.0017,0.0016,-0.003,-0.0036,-0.0203,0.0039,0.0039,0.0039,0.0039,0,0.0468,0.049,0.0502,0.052,0.058,0.0569,0.0657,0.0649,0.0715,0.0825,0.0717,0.0794,0.0587,0.0534,0.0348,0.0213,0.0246,0.0038,0.0023,-0.0003,-0.0007,-0.0216,-0.0328,0.0041,0.004,0.004,0.004,0,0.0514,0.0514,0.0557,0.0586,0.0605,0.0656,0.0771,0.0857,0.0895,0.1048,0.1075,0.1042,0.0971,0.0755,0.0578,0.0376,0.0096,0.0149,0.0143,0.0125,-0.0198,-0.0303,-0.0462,-0.055,0.005,0.005,0.0049,0,0.0541,0.0566,0.0618,0.0671,0.0694,0.0784,0.0877,0.0938,0.1066,0.1216,0.1322,0.1299,0.1302,0.1025,0.0657,0.035,0.0127,0.0124,-0.0001,-0.0209,-0.0337,-0.0422,-0.0491,-0.0019,-0.0019,-0.002,-0.002,0,0.0603,0.0621,0.0667,0.0782,0.088,0.1007,0.1152,0.1281,0.1411,0.1543,0.1714,0.1729,0.1452,0.1129,0.0691,0.0442,-0.0039,0.0101,-0.0121,-0.0408,-0.0505,-0.0597,-0.0033,-0.0026,-0.0025,-0.0025,-0.0025,-0.0025,0.0666,0.0722,0.0807,0.0922,0.1046,0.1248,0.1393,0.1566,0.1786,0.2008,0.1999,0.2042,0.1529,0.0913,0.0575,-0.0099,-0.0083,-0.0317,-0.042,-0.0481,-0.0604,-0.004,-0.0055,-0.0055,-0.0054,-0.0054,-0.0054,0,0.0767,0.0841,0.0953,0.112,0.1301,0.1337,0.1602,0.1762,0.203,0.2172,0.229,0.2027,0.1422,0.0784,-0.0112,-0.0545,-0.0726,-0.0784,-0.0941,-0.0982,-0.0487,-0.0532,-0.0644,-0.0644,-0.0643,-0.0643,-0.0643,-0.0643,0.0837,0.0969,0.1035,0.1338,0.1463,0.1727,0.1889,0.2087,0.2225,0.2369,0.2353,0.2302,0.1751,0.0215,-0.0816,-0.1043,-0.1362,-0.1421,-0.1544,-0.1257,-0.1223,-0.119,-0.1262,-0.1525,-0.1526,-0.2013,-0.2018,-0.2022]}],[{"header":{"parameterUnit":"m.s-1","parameterCategory":2,"la1":30.2991,"la2":30.254,"lo1":-89.0895,"lo2":-89.0444,"dy":0.0017,"dx":0.0017,"nx":28,"ny":28,"refTime":"2025-02-07T09:00:00:Z","depth":"2","parameterNumber":2,"parameterNumberName":"U-component_of_CURRENTS"},"data":[0,0,0,0,0,0,0,0,0,0,0,0,0,0,0,0,0,0,0,0,0,0,0,0,0,0,0,0,0,0,0,0,0,0,0,0,0,0,0,0,0,0,0,0,0,0,0,0,0,0,0,0,0,0,0,0,0,0,0.2093,0.2094,0,0.2135,0.2135,0.2136,0.2143,0.2143,0.2143,0.2143,0.2167,0.2168,0.2168,0,0,0,0,0,0,0,0,0,0,0,0,0,0.2016,0.2017,0.2093,0.2094,0.2095,0.2135,0.2135,0.2136,0.2143,0.2143,0.2143,0.2143,0.2167,0.2168,0.2169,0,0,0,0,0,0,0,0,0,0,0,0,0,0.205,0.2017,0.2093,0.2106,0.2108,0.2135,0.2135,0.2136,0.2143,0.2143,0.2143,0.2143,0.2167,0.2168,0.2169,0.2177,0,0,0.2172,0.2172,0,0,0,0,0,0,0,0,0.2048,0.2052,0.2103,0.2105,0.2107,0.2137,0.2117,0.215,0.2143,0.2127,0.2143,0.2143,0.2157,0.2159,0.2163,0.2178,0.2179,0.2172,0.2173,0.2173,0.2173,0,0,0,0,0,0,0,0.2046,0.2051,0.2107,0.2104,0.2107,0.2108,0.2113,0.2123,0.2139,0.2128,0.213,0.2139,0.2158,0.2162,0.2164,0.2179,0.2172,0.2173,0.2173,0.2174,0.2255,0.2256,0,0,0,0,0,0,0.2047,0.2048,0.2106,0.2108,0.208,0.211,0.2115,0.2125,0.214,0.2143,0.2139,0.2139,0.216,0.2162,0.2165,0.2223,0.2173,0.2174,0.2175,0.2253,0.2255,0.2257,0,0,0,0,0,0,0.2045,0.2052,0.2104,0.2082,0.2089,0.2112,0.2123,0.2126,0.214,0.2149,0.2151,0.2152,0.216,0.2163,0.2188,0.2222,0.2174,0.2175,0.2251,0.2254,0.2256,0.231,0,0,0,0,0,0,0.2043,0.2051,0.2061,0.2082,0.209,0.213,0.2123,0.2127,0.2147,0.2148,0.216,0.2162,0.216,0.2186,0.2189,0.2223,0.2176,0.2249,0.2252,0.2255,0.2306,0.2314,0.232,0,0,0,0,0,0.204,0.2055,0.2061,0.2068,0.2102,0.2132,0.2136,0.2149,0.2148,0.216,0.217,0.2162,0.2207,0.2188,0.2191,0.2226,0.2248,0.2251,0.2255,0.2303,0.2312,0.232,0,0,0,0,0,0,0.2026,0.2058,0.2065,0.2088,0.2113,0.2134,0.2149,0.2156,0.2173,0.2175,0.2176,0.2179,0.2216,0.2212,0.2192,0.2259,0.2229,0.2233,0.2264,0.2273,0.228,0.229,0.2177,0,0,0,0,0,0.2028,0.2048,0.2077,0.2097,0.211,0.213,0.2145,0.2157,0.2174,0.2182,0.2192,0.2208,0.2231,0.2244,0.2259,0.2291,0.2317,0.2318,0.2325,0.2331,0.2342,0.241,0.2425,0.2268,0.2268,0.2268,0,0,0.2026,0.205,0.2058,0.2096,0.2114,0.2142,0.2138,0.2167,0.2195,0.2182,0.222,0.2231,0.2245,0.2284,0.2301,0.2286,0.2393,0.2335,0.234,0.2348,0.2415,0.2431,0.2444,0.227,0.227,0.2269,0,0,0.2035,0.2056,0.2075,0.21,0.2138,0.2156,0.2168,0.2198,0.2216,0.2252,0.2256,0.2289,0.2315,0.234,0.2354,0.2409,0.2426,0.2415,0.2462,0.2528,0.2542,0.2554,0.2622,0.264,0.242,0.242,0.2421,0,0.203,0.2064,0.2085,0.2115,0.2141,0.2165,0.2194,0.222,0.2256,0.2283,0.2272,0.2345,0.2346,0.2414,0.243,0.2426,0.2468,0.2427,0.2538,0.2551,0.2563,0.2629,0.2648,0.2423,0.2423,0.2423,0.2423,0,0.2057,0.2086,0.2102,0.2149,0.2178,0.2209,0.225,0.2282,0.2305,0.2338,0.2407,0.2422,0.2471,0.2477,0.2467,0.2556,0.2562,0.2538,0.2517,0.2582,0.2648,0.2667,0.2428,0.2427,0.2426,0.2425,0,0,0.2033,0.2105,0.2111,0.2143,0.22,0.223,0.2281,0.2342,0.2398,0.2433,0.2506,0.2544,0.2566,0.2584,0.259,0.2638,0.2748,0.2625,0.2627,0.2694,0.2912,0.2828,0.284,0.275,0.2753,0.2756,0.2931,0,0.2046,0.2104,0.2141,0.2201,0.2233,0.2279,0.2331,0.2392,0.2449,0.2526,0.2566,0.2639,0.2606,0.2646,0.269,0.274,0.2799,0.2704,0.2839,0.2843,0.2761,0.2859,0.2646,0.2776,0.2949,0.2952,0.2955,0,0.2055,0.2097,0.2151,0.2238,0.2258,0.2304,0.2404,0.246,0.2566,0.261,0.269,0.2736,0.2828,0.2779,0.2917,0.2863,0.2895,0.2921,0.2928,0.2843,0.2793,0.2736,0.2803,0.2986,0.2983,0.2981,0.2979,0,0.2024,0.2106,0.2152,0.2179,0.2276,0.232,0.2382,0.2487,0.2557,0.2683,0.2763,0.2859,0.2933,0.2996,0.3034,0.3004,0.3168,0.3135,0.3095,0.309,0.293,0.2904,0.3233,0.3233,0.3232,0.3232,0.3231,0,0.2022,0.2059,0.2147,0.2175,0.2243,0.2322,0.2418,0.2489,0.2622,0.2714,0.2818,0.2909,0.2992,0.3084,0.31,0.3159,0.3231,0.3133,0.3138,0.2942,0.2917,0.3101,0.3084,0.3238,0.3237,0.3236,0.3235,0,0.1979,0.2034,0.209,0.2194,0.2227,0.2281,0.2422,0.2501,0.264,0.2769,0.2822,0.2986,0.3114,0.3183,0.3287,0.325,0.3302,0.3291,0.3052,0.3023,0.3174,0.3158,0.3318,0.3317,0.3316,0.3315,0.3314,0,0.1967,0.199,0.2081,0.2119,0.217,0.226,0.2324,0.2469,0.2559,0.2797,0.2856,0.3045,0.312,0.3263,0.3252,0.3304,0.332,0.3101,0.2991,0.32,0.3188,0.3173,0.3158,0.282,0.2815,0.2811,0.2808,0,0.1944,0.1971,0.2019,0.2082,0.215,0.2218,0.233,0.2392,0.2568,0.2681,0.2832,0.2925,0.3097,0.3046,0.3107,0.3091,0.3077,0.3023,0.3337,0.2807,0.2737,0.2722,0.2723,0.2773,0.2776,0.2779,0.2781,0.2782,0.1923,0.1936,0.1994,0.2051,0.2117,0.2167,0.2186,0.2311,0.2403,0.2538,0.2677,0.2741,0.2825,0.2822,0.277,0.275,0.2948,0.2816,0.2826,0.284,0.2727,0.2655,0.2658,0.266,0.2663,0.2665,0.2667,0,0.1892,0.1914,0.1967,0.2023,0.2062,0.2131,0.218,0.2176,0.2217,0.2354,0.2433,0.2299,0.232,0.2418,0.2353,0.2372,0.2326,0.2273,0.2194,0.2233,0.2267,0.212,0.1892,0.1889,0.1886,0.1884,0,0,0.1877,0.1891,0.1908,0.1948,0.2009,0.2,0.1995,0.1976,0.2011,0.1995,0.201,0.2195,0.2343,0.2062,0.2065,0.1967,0.2069,0.1898,0.2532,0.2478,0.2507,0.2609,0.2431,0,0,0,0,0]},{"header":{"parameterUnit":"m.s-1","parameterCategory":2,"la1":30.2991,"la2":30.254,"lo1":-89.0895,"lo2":-89.0444,"dy":0.0017,"dx":0.0017,"nx":28,"ny":28,"refTime":"2025-02-07T09:00:00:Z","depth":"2","parameterNumber":3,"parameterNumberName":"V-component_of_CURRENTS"},"data":[0,0,0,0,0,0,0,0,0,0,0,0,0,0,0,0,0,0,0,0,0,0,0,0,0,0,0,0,0,0,0,0,0,0,0,0,0,0,0,0,0,0,0,0,0,0,0,0,0,0,0,0,0,0,0,0,0,0,-0.0169,-0.0169,0,-0.0228,-0.0229,-0.023,-0.0272,-0.0272,-0.0273,-0.0273,-0.0374,-0.0376,-0.0379,0,0,0,0,0,0,0,0,0,0,0,0,0,-0.0138,-0.0138,-0.0169,-0.0169,-0.017,-0.0228,-0.0229,-0.023,-0.0272,-0.0272,-0.0273,-0.0273,-0.0373,-0.0376,-0.0379,0,0,0,0,0,0,0,0,0,0,0,0,0,-0.017,-0.0138,-0.0169,-0.0197,-0.0201,-0.0228,-0.0229,-0.023,-0.0272,-0.0272,-0.0273,-0.0273,-0.0372,-0.0376,-0.0379,-0.0394,0,0,-0.0391,-0.0392,0,0,0,0,0,0,0,0,-0.0168,-0.0171,-0.0193,-0.0196,-0.0199,-0.0242,-0.0255,-0.0287,-0.0272,-0.0246,-0.0273,-0.0273,-0.0333,-0.034,-0.0351,-0.0399,-0.0403,-0.0391,-0.0393,-0.0395,-0.0396,0,0,0,0,0,0,0,-0.0166,-0.0169,-0.0193,-0.0193,-0.0197,-0.0223,-0.0228,-0.0261,-0.0288,-0.0248,-0.0251,-0.0256,-0.0335,-0.0347,-0.0354,-0.0405,-0.0391,-0.0394,-0.0396,-0.0398,-0.0475,-0.0475,0,0,0,0,0,0,-0.0154,-0.0167,-0.0191,-0.0195,-0.0183,-0.0223,-0.0228,-0.0229,-0.0287,-0.0295,-0.0256,-0.0258,-0.0341,-0.0349,-0.0357,-0.0372,-0.0395,-0.0398,-0.04,-0.0475,-0.0475,-0.0475,0,0,0,0,0,0,-0.0153,-0.0155,-0.0189,-0.0182,-0.0188,-0.0223,-0.0223,-0.023,-0.0241,-0.0292,-0.0302,-0.026,-0.0341,-0.0352,-0.0382,-0.0376,-0.04,-0.0403,-0.0475,-0.0475,-0.0475,-0.0405,0,0,0,0,0,0,-0.0152,-0.0154,-0.0151,-0.0181,-0.0188,-0.0198,-0.0223,-0.0231,-0.0243,-0.0247,-0.0299,-0.0309,-0.0343,-0.0377,-0.0386,-0.0382,-0.0406,-0.0476,-0.0475,-0.0475,-0.0407,-0.0402,-0.0398,0,0,0,0,0,-0.015,-0.0139,-0.015,-0.0153,-0.0181,-0.0197,-0.0203,-0.023,-0.0243,-0.0243,-0.0279,-0.0307,-0.0382,-0.0379,-0.039,-0.0387,-0.0476,-0.0475,-0.0475,-0.0409,-0.0403,-0.0398,0,0,0,0,0,0,-0.0123,-0.0144,-0.0156,-0.0152,-0.017,-0.0204,-0.0206,-0.0225,-0.0253,-0.0256,-0.0306,-0.0318,-0.0343,-0.0375,-0.0371,-0.0409,-0.0433,-0.0435,-0.038,-0.0375,-0.037,-0.035,-0.0409,0,0,0,0,0,-0.0114,-0.0112,-0.0138,-0.0135,-0.0141,-0.0173,-0.0183,-0.02,-0.0228,-0.0241,-0.0277,-0.0316,-0.035,-0.0369,-0.0404,-0.0423,-0.0449,-0.0429,-0.0425,-0.042,-0.0413,-0.0442,-0.0439,-0.0474,-0.0474,-0.0474,0,0,-0.0103,-0.0114,-0.0113,-0.0129,-0.0146,-0.0145,-0.018,-0.0188,-0.0189,-0.0248,-0.0261,-0.0302,-0.0352,-0.0374,-0.0388,-0.0399,-0.0424,-0.042,-0.0416,-0.041,-0.0441,-0.0438,-0.0435,-0.0473,-0.0474,-0.0474,0,0,-0.0075,-0.0088,-0.0076,-0.0087,-0.0104,-0.0122,-0.0121,-0.0151,-0.0166,-0.0185,-0.0227,-0.0259,-0.0311,-0.0342,-0.0367,-0.0357,-0.0398,-0.0372,-0.0332,-0.0361,-0.0358,-0.0356,-0.0379,-0.0379,-0.0369,-0.0369,-0.0369,0,-0.006,-0.0049,-0.0075,-0.0066,-0.0067,-0.0107,-0.0091,-0.0113,-0.0148,-0.0156,-0.0179,-0.0252,-0.0294,-0.0323,-0.032,-0.0345,-0.0367,-0.0347,-0.0353,-0.0351,-0.035,-0.0375,-0.0376,-0.0365,-0.0366,-0.0366,-0.0366,0,-0.0025,-0.0016,-0.0009,-0.0009,-0.0014,-0.0008,-0.0035,-0.0043,-0.0067,-0.0093,-0.0127,-0.0188,-0.0228,-0.0251,-0.0284,-0.0298,-0.0318,-0.0342,-0.0362,-0.0342,-0.037,-0.0372,-0.036,-0.0362,-0.0363,-0.0364,0,0,0.0011,0.0016,0.0019,0.0034,0.0019,0.0023,0.0024,0.0014,0.0023,-0.0032,-0.003,-0.0103,-0.0139,-0.0169,-0.022,-0.025,-0.0262,-0.0286,-0.0289,-0.03,-0.032,-0.0354,-0.036,-0.0287,-0.0287,-0.0287,-0.034,0,0.0048,0.0084,0.0073,0.0109,0.0127,0.01,0.011,0.0094,0.007,0.0061,-0.0014,-0.0037,-0.0108,-0.0122,-0.0165,-0.0229,-0.0266,-0.0245,-0.0347,-0.0349,-0.0374,-0.0363,-0.0328,-0.0375,-0.0343,-0.0344,-0.0344,0,0.0087,0.0108,0.0151,0.0179,0.0185,0.02,0.0217,0.0219,0.0189,0.0171,0.0124,0.0066,0.0012,-0.0049,-0.0161,-0.0142,-0.0225,-0.0286,-0.029,-0.0347,-0.0388,-0.0393,-0.0381,-0.0349,-0.0349,-0.0348,-0.0348,0,0.0132,0.0165,0.0205,0.0212,0.0232,0.0252,0.0265,0.0254,0.0281,0.0244,0.0266,0.0162,0.0139,0.0019,-0.0124,-0.0133,-0.0247,-0.0276,-0.0391,-0.0394,-0.0397,-0.0401,-0.0361,-0.0361,-0.0361,-0.0361,-0.0361,0,0.0179,0.0211,0.0232,0.0255,0.0314,0.0308,0.0369,0.0361,0.0382,0.0427,0.0332,0.0339,0.0157,0.0063,-0.0084,-0.0243,-0.0221,-0.038,-0.041,-0.0373,-0.0373,-0.038,-0.0381,-0.0363,-0.0363,-0.0362,-0.0362,0,0.0221,0.0231,0.0281,0.0317,0.0337,0.0379,0.0455,0.0504,0.0511,0.0572,0.0572,0.0488,0.0366,0.0172,-0.0022,-0.0172,-0.0333,-0.0405,-0.035,-0.0374,-0.0469,-0.0466,-0.0516,-0.0518,-0.0519,-0.052,-0.0521,0,0.0245,0.0275,0.0332,0.0376,0.0398,0.0466,0.0527,0.056,0.0624,0.0662,0.0703,0.0606,0.0535,0.0236,-0.0043,-0.0305,-0.0346,-0.0455,-0.0476,-0.046,-0.0485,-0.048,-0.0476,-0.0449,-0.045,-0.045,-0.045,0,0.0294,0.031,0.0354,0.0444,0.0515,0.06,0.0688,0.0758,0.0807,0.0848,0.0873,0.0821,0.056,0.0289,-0.0074,-0.0254,-0.0409,-0.0468,-0.046,-0.042,-0.0404,-0.0426,-0.0422,-0.0452,-0.0452,-0.0452,-0.0452,-0.0452,0.0329,0.0367,0.0429,0.0515,0.06,0.0708,0.0768,0.0886,0.0971,0.1045,0.0987,0.0936,0.0647,0.0196,-0.0114,-0.0425,-0.0423,-0.0532,-0.0528,-0.0525,-0.0512,-0.05,-0.0563,-0.0564,-0.0564,-0.0565,-0.0565,0,0.0371,0.0416,0.05,0.0585,0.0671,0.0726,0.0855,0.0932,0.1027,0.1124,0.1126,0.0864,0.0572,0.0267,-0.0193,-0.0491,-0.0502,-0.0574,-0.0516,-0.0513,-0.051,-0.0495,-0.0542,-0.0543,-0.0543,-0.0544,0,0,0.0391,0.0468,0.0506,0.0624,0.0691,0.0798,0.0862,0.0996,0.1092,0.117,0.1163,0.1095,0.0705,0.0381,-0.0017,-0.0269,-0.0322,-0.0322,-0.0312,-0.0195,-0.0188,-0.0462,-0.0433,0,0,0,0,0]}],[{"header":{"parameterUnit":"m.s-1","parameterCategory":2,"la1":30.2991,"la2":30.254,"lo1":-89.0895,"lo2":-89.0444,"dy":0.0017,"dx":0.0017,"nx":28,"ny":28,"refTime":"2025-02-07T09:00:00:Z","depth":"4","parameterNumber":2,"parameterNumberName":"U-component_of_CURRENTS"},"data":[0,0,0,0,0,0,0,0,0,0,0,0,0,0,0,0,0,0,0,0,0,0,0,0,0,0,0,0,0,0,0,0,0,0,0,0,0,0,0,0,0,0,0,0,0,0,0,0,0,0,0,0,0,0,0,0,0,0,0.1356,0.1357,0,0.1412,0.1413,0.1413,0.1462,0.1463,0.1464,0.1465,0.152,0.1521,0.1522,0,0,0,0,0,0,0,0,0,0,0,0,0,0.127,0.1271,0.1356,0.1357,0.1358,0.1412,0.1413,0.1413,0.1462,0.1463,0.1464,0.1465,0.152,0.1521,0.1522,0,0,0,0,0,0,0,0,0,0,0,0,0,0.1313,0.1272,0.1356,0.139,0.1394,0.1412,0.1413,0.1414,0.1462,0.1463,0.1464,0.1465,0.152,0.1521,0.1522,0.1508,0,0,0.1526,0.1526,0,0,0,0,0,0,0,0,0.1311,0.1316,0.1384,0.1388,0.1392,0.1433,0.1403,0.1446,0.1462,0.1434,0.1465,0.1466,0.1491,0.1495,0.1501,0.151,0.1513,0.1526,0.1526,0.1527,0.1527,0,0,0,0,0,0,0,0.1308,0.1314,0.1376,0.1385,0.139,0.1396,0.1403,0.1411,0.1455,0.1437,0.1441,0.145,0.1493,0.1499,0.1502,0.1513,0.1526,0.1527,0.1527,0.1528,0.1604,0.1605,0,0,0,0,0,0,0.1304,0.1311,0.1375,0.1378,0.1355,0.1396,0.1405,0.1417,0.1455,0.1462,0.1449,0.1452,0.1497,0.1501,0.1504,0.1575,0.1527,0.1528,0.1529,0.1603,0.1604,0.1606,0,0,0,0,0,0,0.1302,0.131,0.1372,0.1347,0.1356,0.1397,0.1411,0.1418,0.1454,0.1464,0.1471,0.1482,0.1498,0.1503,0.1542,0.1575,0.1529,0.153,0.1601,0.1603,0.1605,0.1662,0,0,0,0,0,0,0.13,0.1309,0.1328,0.1347,0.1357,0.1404,0.141,0.1418,0.1457,0.1462,0.1494,0.1499,0.1499,0.1541,0.1544,0.1576,0.1531,0.16,0.1602,0.1604,0.1659,0.1666,0.1672,0,0,0,0,0,0.1296,0.1314,0.1329,0.1337,0.1379,0.1405,0.1412,0.1442,0.1458,0.1478,0.1504,0.1499,0.1558,0.1543,0.1546,0.1579,0.1598,0.1601,0.1604,0.1656,0.1665,0.1672,0,0,0,0,0,0,0.1286,0.1321,0.1338,0.1366,0.1395,0.1415,0.1439,0.1457,0.1492,0.1507,0.1514,0.152,0.1568,0.1563,0.1546,0.1608,0.1578,0.1582,0.1616,0.1624,0.1631,0.1628,0.1532,0,0,0,0,0,0.1292,0.1318,0.1348,0.1374,0.1391,0.142,0.144,0.1462,0.1489,0.1507,0.1529,0.1553,0.1575,0.1594,0.1609,0.1641,0.1649,0.1664,0.1671,0.1677,0.1677,0.1727,0.1739,0.1615,0.1615,0.1615,0,0,0.1295,0.1319,0.1334,0.1374,0.1399,0.1424,0.1435,0.1474,0.1502,0.1506,0.1558,0.1578,0.1589,0.1629,0.165,0.1635,0.1717,0.168,0.1685,0.1682,0.1732,0.1744,0.1755,0.1617,0.1617,0.1617,0,0,0.1301,0.1337,0.1358,0.1384,0.1429,0.1447,0.1465,0.1504,0.1534,0.1578,0.1593,0.1636,0.1666,0.1686,0.1696,0.1747,0.1751,0.1756,0.179,0.184,0.1851,0.186,0.1889,0.1901,0.176,0.1761,0.1761,0,0.1306,0.1335,0.1368,0.1393,0.1419,0.146,0.1486,0.1517,0.1567,0.1596,0.1605,0.1677,0.169,0.174,0.1761,0.1763,0.1786,0.1759,0.1849,0.1859,0.1868,0.1895,0.1907,0.1764,0.1763,0.1763,0.1763,0,0.1318,0.1353,0.1369,0.1415,0.1447,0.1479,0.1523,0.1567,0.1608,0.1638,0.1709,0.1737,0.1782,0.1796,0.1794,0.1865,0.1861,0.1853,0.1829,0.1884,0.1909,0.1921,0.1768,0.1767,0.1766,0.1765,0,0,0.1296,0.1365,0.1373,0.1402,0.1465,0.149,0.1546,0.1603,0.1654,0.1706,0.1769,0.1815,0.1846,0.1859,0.1877,0.1918,0.2001,0.1917,0.1918,0.1946,0.211,0.1989,0.199,0.2019,0.2022,0.2023,0.2104,0,0.1299,0.1343,0.1382,0.1434,0.1461,0.1522,0.157,0.1632,0.1693,0.1766,0.1811,0.1879,0.1865,0.1912,0.1949,0.1997,0.2034,0.1979,0.2052,0.2054,0.194,0.2,0.2031,0.2113,0.2115,0.2117,0.2119,0,0.1293,0.1326,0.1374,0.1453,0.1473,0.1516,0.1615,0.1667,0.1767,0.1823,0.1895,0.1938,0.2016,0.1998,0.2095,0.2067,0.2091,0.2114,0.2118,0.199,0.1954,0.2046,0.2139,0.2138,0.2136,0.2135,0.2133,0,0.1249,0.1322,0.1362,0.1387,0.1477,0.1526,0.1586,0.1688,0.1746,0.1876,0.1937,0.2023,0.2093,0.2138,0.2181,0.216,0.2276,0.2251,0.2157,0.2149,0.2208,0.2197,0.2312,0.2312,0.2312,0.2311,0.2311,0,0.1222,0.1257,0.1352,0.1371,0.1436,0.1514,0.1602,0.1681,0.1797,0.187,0.197,0.2035,0.2137,0.2205,0.222,0.2223,0.2312,0.217,0.2166,0.2229,0.222,0.2216,0.2204,0.2314,0.2314,0.2313,0.2313,0,0.1162,0.122,0.1273,0.1378,0.1416,0.1467,0.16,0.1661,0.1788,0.189,0.1939,0.2078,0.2173,0.2241,0.2334,0.227,0.229,0.2265,0.2334,0.2332,0.2117,0.2107,0.2168,0.2164,0.2161,0.2159,0.2157,0,0.1129,0.1151,0.1265,0.1301,0.1354,0.1443,0.1504,0.1642,0.1705,0.1891,0.1926,0.2074,0.2148,0.2175,0.2258,0.2287,0.2257,0.2247,0.2165,0.2114,0.2105,0.21,0.2094,0.2152,0.2151,0.215,0.215,0,0.1067,0.1121,0.1165,0.1242,0.1311,0.1381,0.1481,0.151,0.1668,0.1795,0.1877,0.1937,0.204,0.2103,0.2149,0.2157,0.2243,0.2215,0.222,0.2143,0.2096,0.2089,0.2086,0.2139,0.2141,0.2142,0.2142,0,0.1023,0.1043,0.1113,0.1173,0.125,0.1296,0.1359,0.1437,0.1513,0.1706,0.173,0.1884,0.2019,0.2038,0.2075,0.2085,0.2048,0.197,0.1987,0.2,0.1907,0.182,0.1783,0,0,0,0,0,0.0977,0.0994,0.104,0.1095,0.1166,0.1216,0.1333,0.1399,0.1538,0.1553,0.1637,0.1722,0.1801,0.188,0.1858,0.2004,0.2054,0.1969,0.1972,0.2082,0.2094,0.2001,0,0,0,0,0,0,0.0944,0.0983,0.1008,0.1016,0.1039,0.111,0.1179,0.1277,0.1291,0.1441,0.1492,0.1614,0.1714,0.1792,0.1821,0.1846,0.1813,0.2065,0.206,0.2076,0.2086,0.2096,0.2004,0,0,0,0,0]},{"header":{"parameterUnit":"m.s-1","parameterCategory":2,"la1":30.2991,"la2":30.254,"lo1":-89.0895,"lo2":-89.0444,"dy":0.0017,"dx":0.0017,"nx":28,"ny":28,"refTime":"2025-02-07T09:00:00:Z","depth":"4","parameterNumber":3,"parameterNumberName":"V-component_of_CURRENTS"},"data":[0,0,0,0,0,0,0,0,0,0,0,0,0,0,0,0,0,0,0,0,0,0,0,0,0,0,0,0,0,0,0,0,0,0,0,0,0,0,0,0,0,0,0,0,0,0,0,0,0,0,0,0,0,0,0,0,0,0,-0.0124,-0.0125,0,-0.0162,-0.0163,-0.0163,-0.0197,-0.0197,-0.0197,-0.0198,-0.027,-0.0272,-0.0273,0,0,0,0,0,0,0,0,0,0,0,0,0,-0.011,-0.011,-0.0124,-0.0125,-0.0125,-0.0162,-0.0163,-0.0163,-0.0197,-0.0197,-0.0198,-0.0198,-0.0269,-0.0271,-0.0273,0,0,0,0,0,0,0,0,0,0,0,0,0,-0.0129,-0.011,-0.0124,-0.0146,-0.0148,-0.0162,-0.0163,-0.0163,-0.0197,-0.0197,-0.0198,-0.0198,-0.0269,-0.0271,-0.0274,-0.0278,0,0,-0.0281,-0.0282,0,0,0,0,0,0,0,0,-0.0128,-0.013,-0.0142,-0.0144,-0.0147,-0.0175,-0.0184,-0.0203,-0.0196,-0.0179,-0.0198,-0.0198,-0.0241,-0.0245,-0.0252,-0.0281,-0.0284,-0.0281,-0.0282,-0.0283,-0.0284,0,0,0,0,0,0,0,-0.0127,-0.0129,-0.014,-0.0143,-0.0146,-0.0164,-0.0167,-0.0188,-0.0207,-0.018,-0.0183,-0.0186,-0.0242,-0.0249,-0.0254,-0.0285,-0.0281,-0.0283,-0.0285,-0.0285,-0.0333,-0.0333,0,0,0,0,0,0,-0.0119,-0.0127,-0.0139,-0.0141,-0.0138,-0.0164,-0.0167,-0.0166,-0.0206,-0.0213,-0.0186,-0.0188,-0.0245,-0.0251,-0.0256,-0.0265,-0.0283,-0.0286,-0.0287,-0.0333,-0.0333,-0.0333,0,0,0,0,0,0,-0.0118,-0.0119,-0.0137,-0.0135,-0.0138,-0.0163,-0.0162,-0.0166,-0.0177,-0.021,-0.0217,-0.0192,-0.0245,-0.0253,-0.0275,-0.0268,-0.0287,-0.0289,-0.0334,-0.0333,-0.0333,-0.0282,0,0,0,0,0,0,-0.0118,-0.0119,-0.0117,-0.0134,-0.0138,-0.0142,-0.0161,-0.0167,-0.0178,-0.0181,-0.0217,-0.0224,-0.0246,-0.0271,-0.0277,-0.0272,-0.0291,-0.0334,-0.0333,-0.0333,-0.0284,-0.028,-0.0277,0,0,0,0,0,-0.0117,-0.0108,-0.0116,-0.0118,-0.0134,-0.0141,-0.0145,-0.0165,-0.0177,-0.0177,-0.0204,-0.0223,-0.0274,-0.0273,-0.028,-0.0275,-0.0334,-0.0333,-0.0333,-0.0286,-0.0281,-0.0277,0,0,0,0,0,0,-0.01,-0.0111,-0.0121,-0.0116,-0.0127,-0.0147,-0.0149,-0.0163,-0.0183,-0.0188,-0.0222,-0.023,-0.0248,-0.0269,-0.0267,-0.0289,-0.0307,-0.0308,-0.0268,-0.0264,-0.0261,-0.0243,-0.0293,0,0,0,0,0,-0.0095,-0.0092,-0.0107,-0.0104,-0.0107,-0.0129,-0.0135,-0.0148,-0.0167,-0.0176,-0.0202,-0.0229,-0.0251,-0.0263,-0.0286,-0.0297,-0.0327,-0.0299,-0.0295,-0.0292,-0.0283,-0.0321,-0.032,-0.0332,-0.0332,-0.0332,0,0,-0.0088,-0.0093,-0.0092,-0.01,-0.0111,-0.0106,-0.0134,-0.0139,-0.0136,-0.0181,-0.0188,-0.0219,-0.0252,-0.0264,-0.0273,-0.0281,-0.0307,-0.0292,-0.0289,-0.0281,-0.032,-0.0319,-0.0318,-0.0331,-0.0332,-0.0332,0,0,-0.0066,-0.0076,-0.0065,-0.007,-0.0082,-0.0092,-0.0092,-0.011,-0.0121,-0.0132,-0.0163,-0.0188,-0.0222,-0.024,-0.0255,-0.0246,-0.0289,-0.0257,-0.0223,-0.0259,-0.0259,-0.0258,-0.0305,-0.0309,-0.0253,-0.0253,-0.0253,0,-0.0057,-0.0044,-0.0064,-0.0053,-0.005,-0.0081,-0.0064,-0.0077,-0.0101,-0.0106,-0.0128,-0.0178,-0.0207,-0.0221,-0.0217,-0.0236,-0.027,-0.0235,-0.0254,-0.0254,-0.0255,-0.0303,-0.0308,-0.025,-0.0251,-0.0251,-0.0251,0,-0.0027,-0.0017,-0.001,-0.0004,-0.0004,0.0004,-0.0011,-0.0017,-0.0037,-0.0054,-0.0079,-0.0124,-0.0152,-0.0168,-0.0189,-0.0204,-0.0232,-0.0247,-0.0262,-0.025,-0.0302,-0.0309,-0.0247,-0.0248,-0.0248,-0.0249,0,0,-0.0003,0.001,0.0012,0.0029,0.0025,0.0031,0.0038,0.0037,0.004,0.0002,-0.0003,-0.0045,-0.0079,-0.0098,-0.0136,-0.0166,-0.0204,-0.0202,-0.0206,-0.0244,-0.0297,-0.0281,-0.0288,-0.0225,-0.0225,-0.0226,-0.0336,0,0.0027,0.0064,0.0061,0.0098,0.0118,0.0101,0.0113,0.0105,0.0081,0.0066,0.0013,-0.0011,-0.005,-0.0069,-0.0105,-0.018,-0.0216,-0.0173,-0.0307,-0.0311,-0.0294,-0.0292,-0.0227,-0.0341,-0.0342,-0.0343,-0.0344,0,0.006,0.0082,0.0125,0.0157,0.0164,0.0179,0.0193,0.0197,0.0166,0.0146,0.0108,0.0057,0.0006,-0.0032,-0.0149,-0.0122,-0.0199,-0.0261,-0.0267,-0.0271,-0.0306,-0.0354,-0.0356,-0.0355,-0.0354,-0.0354,-0.0353,0,0.0091,0.0129,0.0168,0.0178,0.0204,0.0221,0.0232,0.022,0.0225,0.019,0.0177,0.0106,0.0061,-0.0036,-0.0161,-0.016,-0.0299,-0.0316,-0.0378,-0.0379,-0.0383,-0.0383,-0.0396,-0.0395,-0.0395,-0.0395,-0.0394,0,0.0126,0.0158,0.0186,0.0207,0.0256,0.0258,0.0294,0.029,0.0278,0.0284,0.0217,0.0193,0.0057,-0.0041,-0.0151,-0.0283,-0.0296,-0.0369,-0.04,-0.0362,-0.0357,-0.0389,-0.0387,-0.0399,-0.0398,-0.0397,-0.0397,0,0.015,0.0168,0.0216,0.0255,0.0271,0.0302,0.0339,0.0356,0.0341,0.0342,0.0331,0.0245,0.0126,-0.0017,-0.0185,-0.0267,-0.0396,-0.0441,-0.0396,-0.0423,-0.0457,-0.0451,-0.0518,-0.0518,-0.0518,-0.0518,-0.0518,0,0.0165,0.0191,0.0249,0.0278,0.0297,0.0343,0.0373,0.0385,0.0401,0.0373,0.0371,0.0265,0.0194,-0.0026,-0.018,-0.0388,-0.0413,-0.0488,-0.046,-0.0443,-0.0467,-0.0461,-0.0455,-0.0519,-0.0519,-0.0519,-0.0519,0,0.0188,0.0206,0.0242,0.0301,0.0343,0.0397,0.0438,0.0459,0.0466,0.0455,0.0414,0.03,0.0165,-0.0007,-0.0171,-0.032,-0.044,-0.049,-0.0491,-0.0465,-0.0445,-0.0467,-0.0461,-0.0519,-0.0519,-0.0519,-0.0519,0,0.0195,0.0222,0.0262,0.0318,0.0371,0.0422,0.0455,0.0478,0.0496,0.0475,0.0459,0.0318,0.0235,0.0025,-0.0127,-0.0267,-0.0301,-0.0345,-0.0354,-0.0355,-0.0268,-0.0217,-0.0243,0,0,0,0,0,0.0196,0.0222,0.0273,0.0329,0.0383,0.0417,0.0479,0.0505,0.0522,0.0509,0.049,0.0374,0.0161,0.0064,-0.0071,-0.0148,-0.0343,-0.0313,-0.0402,-0.0523,-0.0522,-0.0446,0,0,0,0,0,0,0.0191,0.0233,0.0265,0.0324,0.0363,0.0423,0.0468,0.0489,0.0489,0.0489,0.0386,0.0336,0.0132,0.0239,-0.0077,-0.0122,-0.0196,-0.0412,-0.0415,-0.0523,-0.0523,-0.0522,-0.0443,0,0,0,0,0]}]]